N9JG KSAN-KLAS

Flight info

Callsign N9JG
Flight time N/A
Altitude 29000
Route PADRZ2 CHKNN SEBBY YELAH MISEN RNDRZ4
Aircraft E55P/M-SDGRWY/L

Departure

Time 2026-05-05 17:06
Airport San Diego International Airport (KSAN)

Arrival

Time N/A
Airport Harry Reid International Airport (KLAS)
Time Latitude Longitude Altitude Speed Heading
2026-05-05 16:49 32.73513 -117.18867 18 ft 0 kts 196°
2026-05-05 17:01 32.73478 -117.18873 18 ft 7 kts 176°
2026-05-05 17:01 32.73437 -117.18794 18 ft 15 kts 105°
2026-05-05 17:01 32.73403 -117.18652 18 ft 20 kts 106°
2026-05-05 17:02 32.73371 -117.18521 18 ft 16 kts 111°
2026-05-05 17:02 32.73325 -117.18372 18 ft 21 kts 107°
2026-05-05 17:02 32.73281 -117.18190 17 ft 24 kts 106°
2026-05-05 17:02 32.73230 -117.17979 18 ft 28 kts 103°
2026-05-05 17:03 32.73178 -117.17753 20 ft 25 kts 104°
2026-05-05 17:03 32.73141 -117.17608 22 ft 13 kts 114°
2026-05-05 17:03 32.73113 -117.17569 22 ft 0 kts 147°
2026-05-05 17:05 32.73112 -117.17569 22 ft 1 kts 145°
2026-05-05 17:05 32.73066 -117.17538 22 ft 13 kts 164°
2026-05-05 17:05 32.73020 -117.17600 22 ft 0 kts 284°
2026-05-05 17:05 32.73067 -117.17782 20 ft 60 kts 286°
2026-05-05 17:06 32.73250 -117.18520 37 ft 121 kts 286°
2026-05-05 17:06 32.73470 -117.19591 284 ft 155 kts 281°
2026-05-05 17:06 32.73688 -117.20939 782 ft 181 kts 281°
2026-05-05 17:06 32.73960 -117.22528 1213 ft 213 kts 288°
2026-05-05 17:07 32.74803 -117.24097 1655 ft 243 kts 308°
2026-05-05 17:07 32.75847 -117.25716 2048 ft 243 kts 307°
2026-05-05 17:07 32.76915 -117.27322 2418 ft 247 kts 308°
2026-05-05 17:07 32.77979 -117.28899 2784 ft 247 kts 308°
2026-05-05 17:08 32.79060 -117.30492 3152 ft 248 kts 308°
2026-05-05 17:08 32.80143 -117.32101 3523 ft 250 kts 307°
2026-05-05 17:08 32.81204 -117.33756 3896 ft 252 kts 307°
2026-05-05 17:08 32.82272 -117.35409 4293 ft 252 kts 307°
2026-05-05 17:09 32.83311 -117.37019 4937 ft 245 kts 307°
2026-05-05 17:09 32.84339 -117.38611 5575 ft 248 kts 306°
2026-05-05 17:09 32.85398 -117.40256 6226 ft 250 kts 306°
2026-05-05 17:09 32.86445 -117.41881 6866 ft 251 kts 307°
2026-05-05 17:10 32.87504 -117.43526 7512 ft 251 kts 306°
2026-05-05 17:10 32.88555 -117.45157 8150 ft 251 kts 306°
2026-05-05 17:10 32.89608 -117.46791 8786 ft 250 kts 306°
2026-05-05 17:10 32.90663 -117.48434 9430 ft 249 kts 306°
2026-05-05 17:11 32.91714 -117.50066 10071 ft 247 kts 306°
2026-05-05 17:11 32.92734 -117.51657 10703 ft 245 kts 306°
2026-05-05 17:11 32.93766 -117.53263 11347 ft 242 kts 306°
2026-05-05 17:11 32.94778 -117.54839 11973 ft 239 kts 306°
2026-05-05 17:12 32.95767 -117.56380 12593 ft 235 kts 306°
2026-05-05 17:12 32.96753 -117.57913 13236 ft 230 kts 306°
2026-05-05 17:12 32.97696 -117.59391 13866 ft 225 kts 306°
2026-05-05 17:12 32.98624 -117.60844 14485 ft 219 kts 306°
2026-05-05 17:13 32.99536 -117.62266 15139 ft 212 kts 306°
2026-05-05 17:13 33.00405 -117.63624 15777 ft 204 kts 306°
2026-05-05 17:13 33.01236 -117.64923 16402 ft 195 kts 306°
2026-05-05 17:13 33.02032 -117.66168 17036 ft 184 kts 306°
2026-05-05 17:14 33.02894 -117.67195 17637 ft 173 kts 336°
2026-05-05 17:14 33.04024 -117.67386 18284 ft 156 kts 353°
2026-05-05 17:14 33.05016 -117.67458 18823 ft 135 kts 350°
2026-05-05 17:14 33.05992 -117.67547 18852 ft 153 kts 351°